AZA118 LPMA-LIRF

Flight info

Callsign AZA118
Flight time 3h 19m
Altitude 36000
Route DEGUN DCT RULET DCT GALPA/N0449F360 DCT NARTA DCT MINTA DCT OSLEP DCT NAPES DCT ONUBA DCT PIMUR DCT SVL DCT AMOTA DCT VULPE DCT ALCOL DCT KUKAL DCT BLN DCT YES DCT TOSTO DCT OLPOS DCT BEGOX DCT LASPO DCT ORVUS DCT GODOX DCT EDULI DCT PTC DCT MHN DCT MORSS DCT BAVON DCT ORKUM DCT ELSAG DCT ALG DCT MINKA DCT ROMPO DCT RUXOP DCT BATOX DCT TINTO DCT VALMA
Aircraft A320/M-SDE3FGHIRWY/LB1

Departure

Time 2026-05-04 18:57
Airport Cristiano Ronaldo International Airport (LPMA)

Arrival

Time 2026-05-04 22:16
Airport Rome–Fiumicino Leonardo da Vinci International Airport (LIRF)
Time Latitude Longitude Altitude Speed Heading
2026-05-04 18:17 32.69465 -16.77519 177 ft 0 kts 137°
2026-05-04 18:19 32.69465 -16.77520 176 ft 0 kts 137°
2026-05-04 18:44 32.69466 -16.77521 176 ft 2 kts 137°
2026-05-04 18:45 32.69479 -16.77535 176 ft 2 kts 137°
2026-05-04 18:45 32.69492 -16.77549 176 ft 2 kts 137°
2026-05-04 18:45 32.69501 -16.77565 176 ft 2 kts 104°
2026-05-04 18:45 32.69504 -16.77585 176 ft 2 kts 56°
2026-05-04 18:46 32.69503 -16.77587 176 ft 0 kts 51°
2026-05-04 18:50 32.69517 -16.77569 176 ft 3 kts 45°
2026-05-04 18:50 32.69541 -16.77542 176 ft 8 kts 43°
2026-05-04 18:50 32.69581 -16.77495 176 ft 7 kts 46°
2026-05-04 18:51 32.69613 -16.77455 176 ft 7 kts 45°
2026-05-04 18:51 32.69659 -16.77399 176 ft 10 kts 47°
2026-05-04 18:51 32.69702 -16.77344 176 ft 8 kts 46°
2026-05-04 18:51 32.69739 -16.77299 176 ft 7 kts 45°
2026-05-04 18:52 32.69768 -16.77265 176 ft 5 kts 45°
2026-05-04 18:52 32.69789 -16.77240 176 ft 2 kts 46°
2026-05-04 18:52 32.69790 -16.77238 176 ft 0 kts 46°
2026-05-04 18:53 32.69830 -16.77191 176 ft 10 kts 38°
2026-05-04 18:53 32.69890 -16.77179 176 ft 9 kts
2026-05-04 18:54 32.69966 -16.77179 176 ft 14 kts 360°
2026-05-04 18:54 32.70046 -16.77144 176 ft 12 kts 41°
2026-05-04 18:54 32.70115 -16.77063 176 ft 18 kts 45°
2026-05-04 18:54 32.70220 -16.76940 176 ft 22 kts 44°
2026-05-04 18:55 32.70330 -16.76812 176 ft 19 kts 44°
2026-05-04 18:55 32.70524 -16.76587 176 ft 19 kts 45°
2026-05-04 18:55 32.70614 -16.76510 176 ft 10 kts 18°
2026-05-04 18:56 32.70652 -16.76472 176 ft 4 kts 117°
2026-05-04 18:56 32.70624 -16.76477 176 ft 6 kts 204°
2026-05-04 18:56 32.70508 -16.76605 176 ft 55 kts 225°
2026-05-04 18:56 32.70071 -16.77118 176 ft 119 kts 224°
2026-05-04 18:57 32.69355 -16.77958 217 ft 163 kts 224°
2026-05-04 18:57 32.68567 -16.78905 811 ft 163 kts 220°
2026-05-04 18:57 32.67556 -16.79519 1400 ft 167 kts 193°
2026-05-04 18:57 32.66332 -16.79564 1683 ft 188 kts 178°
2026-05-04 18:58 32.64981 -16.79773 1907 ft 207 kts 202°
2026-05-04 18:58 32.63541 -16.80296 2178 ft 230 kts 188°
2026-05-04 18:58 32.61864 -16.80442 2518 ft 253 kts 181°
2026-05-04 18:58 32.60116 -16.79995 3145 ft 266 kts 151°
2026-05-04 18:59 32.58783 -16.78470 3911 ft 272 kts 123°
2026-05-04 18:59 32.58074 -16.76380 4750 ft 276 kts 101°
2026-05-04 18:59 32.58076 -16.74100 5550 ft 281 kts 78°
2026-05-04 18:59 32.58759 -16.71923 6342 ft 284 kts 67°
2026-05-04 19:00 32.59545 -16.69755 7081 ft 287 kts 68°
2026-05-04 19:00 32.60317 -16.67561 7849 ft 290 kts 68°
2026-05-04 19:00 32.61090 -16.65340 8590 ft 293 kts 68°
2026-05-04 19:00 32.61871 -16.63095 9336 ft 296 kts 68°
2026-05-04 19:01 32.62661 -16.60827 10074 ft 299 kts 68°
2026-05-04 19:01 32.63463 -16.58534 10744 ft 303 kts 68°
2026-05-04 19:01 32.64283 -16.56219 11406 ft 306 kts 65°
2026-05-04 19:01 32.65393 -16.54069 12003 ft 312 kts 51°
2026-05-04 19:02 32.66952 -16.52147 12163 ft 334 kts 43°
2026-05-04 19:02 32.68690 -16.50184 12322 ft 355 kts 43°
2026-05-04 19:02 32.70505 -16.48134 12797 ft 363 kts 43°
2026-05-04 19:02 32.72346 -16.46052 13392 ft 368 kts 43°
2026-05-04 19:03 32.74209 -16.43936 13994 ft 372 kts 43°
2026-05-04 19:03 32.76089 -16.41795 14521 ft 377 kts 43°
2026-05-04 19:03 32.77989 -16.39622 15045 ft 381 kts 43°
2026-05-04 19:03 32.79909 -16.37421 15582 ft 386 kts 43°
2026-05-04 19:04 32.81852 -16.35196 16104 ft 390 kts 43°
2026-05-04 19:04 32.83795 -16.32972 16596 ft 395 kts 43°
2026-05-04 19:04 32.85790 -16.30687 17092 ft 400 kts 43°
2026-05-04 19:04 32.87812 -16.28375 17590 ft 405 kts 43°
2026-05-04 19:05 32.89846 -16.26048 18186 ft 407 kts 43°
2026-05-04 19:05 32.91893 -16.23704 18691 ft 410 kts 43°
2026-05-04 19:05 32.93954 -16.21337 19153 ft 413 kts 43°
2026-05-04 19:05 32.96033 -16.18948 19623 ft 416 kts 43°
2026-05-04 19:06 32.98123 -16.16544 20092 ft 419 kts 43°
2026-05-04 19:06 33.00227 -16.14122 20559 ft 422 kts 43°
2026-05-04 19:06 33.02348 -16.11676 21029 ft 425 kts 43°
2026-05-04 19:06 33.04476 -16.09217 21481 ft 428 kts 43°
2026-05-04 19:07 33.06628 -16.06735 21942 ft 431 kts 43°
2026-05-04 19:07 33.08793 -16.04242 22389 ft 434 kts 43°
2026-05-04 19:07 33.10942 -16.01761 22819 ft 437 kts 43°
2026-05-04 19:07 33.13131 -15.99225 23244 ft 440 kts 43°
2026-05-04 19:08 33.15330 -15.96677 23658 ft 442 kts 43°
2026-05-04 19:08 33.17545 -15.94111 24002 ft 445 kts 43°
2026-05-04 19:08 33.19772 -15.91532 24359 ft 447 kts 42°
2026-05-04 19:08 33.22015 -15.88932 24699 ft 449 kts 42°
2026-05-04 19:09 33.24263 -15.86327 25035 ft 451 kts 42°
2026-05-04 19:09 33.26520 -15.83708 25370 ft 453 kts 43°
2026-05-04 19:09 33.28783 -15.81081 25689 ft 455 kts 42°
2026-05-04 19:09 33.31058 -15.78435 26010 ft 457 kts 43°
2026-05-04 19:10 33.33342 -15.75773 26330 ft 459 kts 43°
2026-05-04 19:10 33.35635 -15.73101 26633 ft 461 kts 43°
2026-05-04 19:10 33.37934 -15.70421 26934 ft 463 kts 43°
2026-05-04 19:10 33.40244 -15.67726 27231 ft 465 kts 43°
2026-05-04 19:11 33.42650 -15.65143 27521 ft 465 kts 35°
2026-05-04 19:11 33.45252 -15.62838 27819 ft 466 kts 34°
2026-05-04 19:11 33.47870 -15.60534 28124 ft 467 kts 34°
2026-05-04 19:11 33.50493 -15.58224 28407 ft 469 kts 34°
2026-05-04 19:12 33.53130 -15.55901 28682 ft 471 kts 34°
2026-05-04 19:12 33.58432 -15.51216 29191 ft 475 kts 34°
2026-05-04 19:12 33.61096 -15.48856 29445 ft 477 kts 34°
2026-05-04 19:13 33.63734 -15.46518 29676 ft 478 kts 34°
2026-05-04 19:13 33.66416 -15.44139 29927 ft 480 kts 34°
2026-05-04 19:13 33.69101 -15.41755 30138 ft 481 kts 34°
2026-05-04 19:13 33.71798 -15.39361 30333 ft 483 kts 34°
2026-05-04 19:14 33.74503 -15.36955 30526 ft 484 kts 34°
2026-05-04 19:14 33.77207 -15.34549 30820 ft 483 kts 33°
2026-05-04 19:14 33.79908 -15.32141 31048 ft 483 kts 33°
2026-05-04 19:14 33.82609 -15.29729 31291 ft 483 kts 33°
2026-05-04 19:15 33.85304 -15.27323 31536 ft 483 kts 33°
2026-05-04 19:15 33.88002 -15.24916 31792 ft 482 kts 33°
2026-05-04 19:15 33.90704 -15.22510 32048 ft 482 kts 33°
2026-05-04 19:15 33.93399 -15.20107 32302 ft 482 kts 33°
2026-05-04 19:16 33.96053 -15.17736 32550 ft 481 kts 33°
2026-05-04 19:16 33.98738 -15.15331 32798 ft 481 kts 33°
2026-05-04 19:16 34.01422 -15.12925 33043 ft 480 kts 33°
2026-05-04 19:16 34.04102 -15.10521 33291 ft 480 kts 33°
2026-05-04 19:17 34.06780 -15.08117 33533 ft 480 kts 33°
2026-05-04 19:17 34.09459 -15.05711 33749 ft 480 kts 33°
2026-05-04 19:17 34.12135 -15.03305 33991 ft 480 kts 33°
2026-05-04 19:17 34.14812 -15.00895 34217 ft 480 kts 33°
2026-05-04 19:18 34.17483 -14.98491 34419 ft 479 kts 33°
2026-05-04 19:18 34.20158 -14.96085 34614 ft 479 kts 33°
2026-05-04 19:18 34.22831 -14.93674 34806 ft 479 kts 33°
2026-05-04 19:18 34.25436 -14.91153 34986 ft 482 kts 40°
2026-05-04 19:19 34.27794 -14.88255 35144 ft 484 kts 43°
2026-05-04 19:19 34.30120 -14.85301 35317 ft 484 kts 43°
2026-05-04 19:19 34.32443 -14.82352 35474 ft 484 kts 43°
2026-05-04 19:19 34.34767 -14.79406 35649 ft 484 kts 44°
2026-05-04 19:20 34.37094 -14.76463 35829 ft 483 kts 43°
2026-05-04 19:20 34.39422 -14.73525 35989 ft 483 kts 43°
2026-05-04 19:20 34.41747 -14.70588 36136 ft 483 kts 44°
2026-05-04 19:21 34.46355 -14.64738 36170 ft 483 kts 44°
2026-05-04 19:21 34.50975 -14.58841 36170 ft 482 kts 44°
2026-05-04 19:22 34.55602 -14.52935 36172 ft 484 kts 44°
2026-05-04 19:22 34.60238 -14.47011 36168 ft 484 kts 44°
2026-05-04 19:23 34.64881 -14.41077 36203 ft 484 kts 44°
2026-05-04 19:23 34.69525 -14.35141 36188 ft 485 kts 44°
2026-05-04 19:24 34.74154 -14.29187 36197 ft 485 kts 44°
2026-05-04 19:24 34.78781 -14.23225 36196 ft 485 kts 44°
2026-05-04 19:25 34.83408 -14.17259 36190 ft 485 kts 44°
2026-05-04 19:25 34.88039 -14.11283 36192 ft 485 kts 44°
2026-05-04 19:26 34.92638 -14.05337 36190 ft 485 kts 44°
2026-05-04 19:26 34.97267 -13.99348 36193 ft 485 kts 44°
2026-05-04 19:27 35.01896 -13.93344 36188 ft 486 kts 44°
2026-05-04 19:27 35.05745 -13.88338 36186 ft 486 kts 44°
2026-05-04 19:28 35.10375 -13.82306 36175 ft 487 kts 44°
2026-05-04 19:28 35.15004 -13.76262 36174 ft 487 kts 44°
2026-05-04 19:29 35.19634 -13.70213 36176 ft 487 kts 44°
2026-05-04 19:29 35.24270 -13.64150 36180 ft 488 kts 44°
2026-05-04 19:30 35.28896 -13.58074 36180 ft 488 kts 44°
2026-05-04 19:30 35.33528 -13.51992 36185 ft 488 kts 44°
2026-05-04 19:31 35.38156 -13.45911 36186 ft 489 kts 44°
2026-05-04 19:31 35.42789 -13.39799 36183 ft 490 kts 44°
2026-05-04 19:32 35.47400 -13.33704 36185 ft 490 kts 44°
2026-05-04 19:32 35.52031 -13.27565 36204 ft 491 kts 44°
2026-05-04 19:33 35.56672 -13.21413 36192 ft 491 kts 44°
2026-05-04 19:33 35.61323 -13.15251 36189 ft 491 kts 44°
2026-05-04 19:34 35.65969 -13.09084 36185 ft 492 kts 44°
2026-05-04 19:34 35.70618 -13.02893 36177 ft 493 kts 44°
2026-05-04 19:35 35.75253 -12.96675 36186 ft 493 kts 44°
2026-05-04 19:35 35.79874 -12.90492 36183 ft 493 kts 44°
2026-05-04 19:36 35.84520 -12.84262 36194 ft 494 kts 44°
2026-05-04 19:36 35.89166 -12.78019 36180 ft 494 kts 44°
2026-05-04 19:37 35.93814 -12.71772 36177 ft 494 kts 43°
2026-05-04 19:37 35.98471 -12.65505 36181 ft 495 kts 43°
2026-05-04 19:38 36.03066 -12.59169 36165 ft 497 kts 49°
2026-05-04 19:38 36.06482 -12.51708 36175 ft 503 kts 69°
2026-05-04 19:39 36.08478 -12.43421 36167 ft 503 kts 73°
2026-05-04 19:39 36.10401 -12.35099 36158 ft 504 kts 73°
2026-05-04 19:40 36.12343 -12.26763 36173 ft 504 kts 73°
2026-05-04 19:40 36.14245 -12.18464 36174 ft 505 kts 73°
2026-05-04 19:41 36.16140 -12.10101 36176 ft 505 kts 73°
2026-05-04 19:41 36.18040 -12.01730 36184 ft 505 kts 73°
2026-05-04 19:42 36.19938 -11.93359 36180 ft 505 kts 73°
2026-05-04 19:42 36.21829 -11.84979 36177 ft 505 kts 73°
2026-05-04 19:43 36.23710 -11.76584 36181 ft 506 kts 73°
2026-05-04 19:43 36.25589 -11.68187 36175 ft 506 kts 73°
2026-05-04 19:44 36.27462 -11.59792 36174 ft 505 kts 73°
2026-05-04 19:44 36.29333 -11.51395 36171 ft 505 kts 73°
2026-05-04 19:45 36.31188 -11.43052 36170 ft 505 kts 73°
2026-05-04 19:45 36.33050 -11.34597 36169 ft 505 kts 73°
2026-05-04 19:46 36.34898 -11.26186 36172 ft 505 kts 73°
2026-05-04 19:46 36.36727 -11.17830 36169 ft 505 kts 73°
2026-05-04 19:47 36.38559 -11.09405 36169 ft 505 kts 73°
2026-05-04 19:47 36.40393 -11.00985 36162 ft 505 kts 73°
2026-05-04 19:48 36.42227 -10.92552 36169 ft 505 kts 73°
2026-05-04 19:48 36.44042 -10.84120 36166 ft 506 kts 73°
2026-05-04 19:49 36.45858 -10.75674 36165 ft 506 kts 73°
2026-05-04 19:49 36.47671 -10.67222 36165 ft 506 kts 74°
2026-05-04 19:50 36.49477 -10.58765 36165 ft 506 kts 74°
2026-05-04 19:50 36.51279 -10.50310 36164 ft 506 kts 74°
2026-05-04 19:51 36.53068 -10.41836 36161 ft 507 kts 74°
2026-05-04 19:51 36.54857 -10.33363 36191 ft 507 kts 74°
2026-05-04 19:52 36.56645 -10.24880 36170 ft 507 kts 74°
2026-05-04 19:52 36.58420 -10.16396 36153 ft 507 kts 74°
2026-05-04 19:53 36.60184 -10.07950 36148 ft 507 kts 74°
2026-05-04 19:53 36.61950 -9.99445 36150 ft 508 kts 74°
2026-05-04 19:54 36.63710 -9.90923 36153 ft 508 kts 74°
2026-05-04 19:54 36.65469 -9.82401 36159 ft 508 kts 74°
2026-05-04 19:55 36.67225 -9.73862 36151 ft 509 kts 74°
2026-05-04 19:55 36.68973 -9.65314 36143 ft 509 kts 74°
2026-05-04 19:56 36.70714 -9.56768 36142 ft 509 kts 74°
2026-05-04 19:56 36.72452 -9.48199 36143 ft 510 kts 74°
2026-05-04 19:57 36.74184 -9.39630 36144 ft 510 kts 74°
2026-05-04 19:57 36.75903 -9.31097 36140 ft 511 kts 74°
2026-05-04 19:58 36.77626 -9.22490 36140 ft 511 kts 74°
2026-05-04 19:58 36.79342 -9.13882 36143 ft 511 kts 75°
2026-05-04 19:59 36.81056 -9.05257 36148 ft 512 kts 75°
2026-05-04 19:59 36.82770 -8.96631 36146 ft 512 kts 75°
2026-05-04 20:00 36.84474 -8.88008 36142 ft 512 kts 75°
2026-05-04 20:00 36.86166 -8.79386 36142 ft 512 kts 75°
2026-05-04 20:01 36.87852 -8.70745 36134 ft 512 kts 75°
2026-05-04 20:01 36.89525 -8.62156 36128 ft 512 kts 75°
2026-05-04 20:02 36.91204 -8.53512 36130 ft 512 kts 75°
2026-05-04 20:02 36.92876 -8.44861 36125 ft 512 kts 75°
2026-05-04 20:03 36.94539 -8.36204 36156 ft 512 kts 75°
2026-05-04 20:03 36.96203 -8.27560 36135 ft 511 kts 76°
2026-05-04 20:04 36.97853 -8.18929 36117 ft 510 kts 76°
2026-05-04 20:04 36.99493 -8.10311 36103 ft 509 kts 76°
2026-05-04 20:05 37.01124 -8.01693 36096 ft 509 kts 76°
2026-05-04 20:05 37.02735 -7.93129 36093 ft 509 kts 76°
2026-05-04 20:06 37.04353 -7.84498 36092 ft 509 kts 76°
2026-05-04 20:06 37.05965 -7.75869 36095 ft 509 kts 76°
2026-05-04 20:07 37.07578 -7.67234 36099 ft 509 kts 76°
2026-05-04 20:07 37.09177 -7.58600 36091 ft 509 kts 76°
2026-05-04 20:08 37.10765 -7.49959 36095 ft 509 kts 76°
2026-05-04 20:08 37.12351 -7.41318 36092 ft 509 kts 76°
2026-05-04 20:09 37.13954 -7.32672 36095 ft 509 kts 76°
2026-05-04 20:09 37.15604 -7.24036 36086 ft 509 kts 75°
2026-05-04 20:10 37.17262 -7.15406 36090 ft 509 kts 75°
2026-05-04 20:10 37.18900 -7.06821 36080 ft 509 kts 76°
2026-05-04 20:11 37.20531 -6.98177 36068 ft 509 kts 76°
2026-05-04 20:11 37.22153 -6.89528 36067 ft 509 kts 76°
2026-05-04 20:12 37.23775 -6.80859 36057 ft 510 kts 76°
2026-05-04 20:12 37.25391 -6.72193 36056 ft 510 kts 76°
2026-05-04 20:13 37.26999 -6.63525 36050 ft 510 kts 76°
2026-05-04 20:13 37.28594 -6.54839 36052 ft 511 kts 76°
2026-05-04 20:14 37.30183 -6.46146 36089 ft 511 kts 76°
2026-05-04 20:14 37.31774 -6.37451 36056 ft 511 kts 76°
2026-05-04 20:15 37.33354 -6.28743 36044 ft 511 kts 76°
2026-05-04 20:15 37.34925 -6.20029 36038 ft 511 kts 76°
2026-05-04 20:16 37.36490 -6.11361 36030 ft 511 kts 76°
2026-05-04 20:16 37.38062 -6.02644 36019 ft 511 kts 76°
2026-05-04 20:17 37.39621 -5.93916 36026 ft 512 kts 76°
2026-05-04 20:17 37.41176 -5.85179 36026 ft 512 kts 76°
2026-05-04 20:18 37.42833 -5.76479 36025 ft 510 kts 70°
2026-05-04 20:18 37.45554 -5.68272 36014 ft 508 kts 63°
2026-05-04 20:19 37.47928 -5.61506 36015 ft 508 kts 63°
2026-05-04 20:19 37.50777 -5.53354 36014 ft 508 kts 63°
2026-05-04 20:20 37.54082 -5.43875 36022 ft 509 kts 64°
2026-05-04 20:20 37.56454 -5.37034 36022 ft 509 kts 64°
2026-05-04 20:21 37.59284 -5.28860 36016 ft 509 kts 63°
2026-05-04 20:21 37.63511 -5.16636 36013 ft 509 kts 63°
2026-05-04 20:22 37.66334 -5.08438 36005 ft 510 kts 64°
2026-05-04 20:22 37.69157 -5.00224 35997 ft 510 kts 64°
2026-05-04 20:23 37.71983 -4.91998 35998 ft 510 kts 63°
2026-05-04 20:23 37.74796 -4.83773 35992 ft 511 kts 64°
2026-05-04 20:24 37.77606 -4.75519 35987 ft 511 kts 64°
2026-05-04 20:24 37.80278 -4.67188 35998 ft 513 kts 70°
2026-05-04 20:25 37.82420 -4.58567 35998 ft 514 kts 71°
2026-05-04 20:25 37.84501 -4.49888 35991 ft 514 kts 71°
2026-05-04 20:26 37.86565 -4.41230 35994 ft 514 kts 71°
2026-05-04 20:26 37.88634 -4.32637 36031 ft 514 kts 71°
2026-05-04 20:27 37.90723 -4.23980 36023 ft 514 kts 71°
2026-05-04 20:27 37.92794 -4.15310 36016 ft 514 kts 71°
2026-05-04 20:28 37.94854 -4.06641 36002 ft 514 kts 71°
2026-05-04 20:28 37.96908 -3.97969 35998 ft 514 kts 71°
2026-05-04 20:29 37.98960 -3.89296 35996 ft 514 kts 71°
2026-05-04 20:29 38.01019 -3.80610 35992 ft 514 kts 71°
2026-05-04 20:30 38.03064 -3.71911 35995 ft 514 kts 72°
2026-05-04 20:30 38.05089 -3.63214 35997 ft 514 kts 72°
2026-05-04 20:31 38.07117 -3.54514 35998 ft 514 kts 72°
2026-05-04 20:31 38.09137 -3.45801 36006 ft 514 kts 72°
2026-05-04 20:32 38.11136 -3.37148 36002 ft 514 kts 72°
2026-05-04 20:32 38.13147 -3.28433 36004 ft 514 kts 72°
2026-05-04 20:33 38.15149 -3.19702 36054 ft 515 kts 72°
2026-05-04 20:33 38.17149 -3.10963 36043 ft 515 kts 72°
2026-05-04 20:34 38.19142 -3.02218 36029 ft 515 kts 72°
2026-05-04 20:34 38.21125 -2.93468 36036 ft 515 kts 73°
2026-05-04 20:35 38.23099 -2.84727 36037 ft 514 kts 73°
2026-05-04 20:35 38.25068 -2.75990 36036 ft 514 kts 72°
2026-05-04 20:36 38.27017 -2.67305 36037 ft 514 kts 73°
2026-05-04 20:36 38.28967 -2.58553 36041 ft 513 kts 73°
2026-05-04 20:37 38.30915 -2.49810 36043 ft 513 kts 73°
2026-05-04 20:37 38.32854 -2.41077 36040 ft 513 kts 73°
2026-05-04 20:38 38.34783 -2.32325 36040 ft 513 kts 73°
2026-05-04 20:38 38.36706 -2.23576 36032 ft 514 kts 73°
2026-05-04 20:39 38.38632 -2.14793 36017 ft 514 kts 73°
2026-05-04 20:39 38.40552 -2.06003 36012 ft 515 kts 73°
2026-05-04 20:40 38.42453 -1.97260 36000 ft 515 kts 73°
2026-05-04 20:40 38.44361 -1.88449 35989 ft 515 kts 73°
2026-05-04 20:41 38.46267 -1.79637 35987 ft 515 kts 73°
2026-05-04 20:41 38.48167 -1.70816 35990 ft 515 kts 74°
2026-05-04 20:42 38.50063 -1.61987 35986 ft 515 kts 74°
2026-05-04 20:42 38.51939 -1.53160 35988 ft 515 kts 74°
2026-05-04 20:43 38.53810 -1.44339 35977 ft 514 kts 74°
2026-05-04 20:43 38.55668 -1.35521 35986 ft 513 kts 75°
2026-05-04 20:44 38.57506 -1.26768 35987 ft 513 kts 75°
2026-05-04 20:44 38.59357 -1.17962 35985 ft 512 kts 75°
2026-05-04 20:45 38.61197 -1.09164 35980 ft 512 kts 75°
2026-05-04 20:45 38.63025 -1.00361 35975 ft 512 kts 75°
2026-05-04 20:46 38.64842 -0.91546 35975 ft 512 kts 75°
2026-05-04 20:46 38.66664 -0.82731 35993 ft 512 kts 75°
2026-05-04 20:47 38.68484 -0.73927 35999 ft 512 kts 75°
2026-05-04 20:47 38.70287 -0.65120 36012 ft 511 kts 75°
2026-05-04 20:48 38.72064 -0.56354 36027 ft 512 kts 75°
2026-05-04 20:48 38.73849 -0.47531 36046 ft 512 kts 75°
2026-05-04 20:49 38.75636 -0.38713 36046 ft 512 kts 75°
2026-05-04 20:49 38.77415 -0.29885 36045 ft 512 kts 76°
2026-05-04 20:50 38.79185 -0.21044 36024 ft 512 kts 76°
2026-05-04 20:50 38.80945 -0.12207 36000 ft 512 kts 76°
2026-05-04 20:51 38.82700 -0.03362 35970 ft 512 kts 76°
2026-05-04 20:51 38.84451 0.05508 35931 ft 512 kts 76°
2026-05-04 20:52 38.86184 0.14316 35936 ft 513 kts 76°
2026-05-04 20:52 38.87937 0.23248 35938 ft 513 kts 76°
2026-05-04 20:53 38.89677 0.32134 35984 ft 513 kts 76°
2026-05-04 20:53 38.91398 0.40956 35959 ft 513 kts 76°
2026-05-04 20:54 38.93114 0.49832 35962 ft 512 kts 77°
2026-05-04 20:54 38.94824 0.58711 35961 ft 512 kts 77°
2026-05-04 20:55 38.96520 0.67581 35965 ft 511 kts 77°
2026-05-04 20:55 38.98207 0.76459 35946 ft 511 kts 77°
2026-05-04 20:56 38.99895 0.85335 35955 ft 511 kts 77°
2026-05-04 20:56 39.01583 0.94222 35962 ft 511 kts 77°
2026-05-04 20:57 39.03254 1.03099 35962 ft 511 kts 77°
2026-05-04 20:57 39.04912 1.11928 35972 ft 511 kts 77°
2026-05-04 20:58 39.06565 1.20811 35954 ft 511 kts 78°
2026-05-04 20:58 39.08207 1.29716 35966 ft 511 kts 78°
2026-05-04 20:59 39.09856 1.38621 35973 ft 511 kts 77°
2026-05-04 20:59 39.11507 1.47529 36005 ft 511 kts 78°
2026-05-04 21:00 39.13138 1.56451 35984 ft 511 kts 78°
2026-05-04 21:00 39.14766 1.65370 35984 ft 511 kts 78°
2026-05-04 21:01 39.16394 1.74291 35986 ft 511 kts 78°
2026-05-04 21:01 39.18007 1.83218 35981 ft 511 kts 78°
2026-05-04 21:02 39.19610 1.92151 35960 ft 512 kts 79°
2026-05-04 21:02 39.21211 2.01099 35965 ft 512 kts 79°
2026-05-04 21:03 39.22800 2.10005 35969 ft 513 kts 79°
2026-05-04 21:03 39.24391 2.18976 35973 ft 513 kts 79°
2026-05-04 21:04 39.25978 2.27951 35985 ft 513 kts 79°
2026-05-04 21:04 39.27558 2.36940 35969 ft 514 kts 79°
2026-05-04 21:05 39.29127 2.45931 35974 ft 514 kts 79°
2026-05-04 21:05 39.30691 2.54942 35981 ft 514 kts 79°
2026-05-04 21:06 39.32254 2.63950 36024 ft 514 kts 79°
2026-05-04 21:06 39.33812 2.72946 35996 ft 513 kts 80°
2026-05-04 21:07 39.35343 2.81882 36003 ft 512 kts 80°
2026-05-04 21:07 39.36885 2.90925 36008 ft 512 kts 80°
2026-05-04 21:08 39.38402 2.99846 36006 ft 511 kts 80°
2026-05-04 21:08 39.39921 3.08821 35980 ft 511 kts 81°
2026-05-04 21:09 39.41185 3.16361 35983 ft 512 kts 81°
2026-05-04 21:09 39.43436 3.26654 35987 ft 515 kts 66°
2026-05-04 21:10 39.46930 3.34735 35987 ft 515 kts 59°
2026-05-04 21:10 39.49984 3.41369 35987 ft 515 kts 59°
2026-05-04 21:11 39.53496 3.49467 36000 ft 515 kts 70°
2026-05-04 21:11 39.55797 3.58219 35995 ft 513 kts 73°
2026-05-04 21:12 39.58024 3.67022 35990 ft 514 kts 74°
2026-05-04 21:12 39.60234 3.75836 35990 ft 514 kts 74°
2026-05-04 21:13 39.62429 3.84594 35984 ft 514 kts 74°
2026-05-04 21:13 39.64635 3.93410 35993 ft 514 kts 74°
2026-05-04 21:14 39.66834 4.02228 36000 ft 514 kts 74°
2026-05-04 21:14 39.69033 4.11054 36002 ft 514 kts 74°
2026-05-04 21:15 39.71219 4.19874 35976 ft 513 kts 74°
2026-05-04 21:15 39.73393 4.28713 36011 ft 513 kts 74°
2026-05-04 21:16 39.75568 4.37543 36011 ft 513 kts 74°
2026-05-04 21:16 39.77727 4.46373 36009 ft 513 kts 74°
2026-05-04 21:17 39.79880 4.55217 36011 ft 512 kts 74°
2026-05-04 21:17 39.82032 4.64052 35985 ft 512 kts 74°
2026-05-04 21:18 39.84169 4.72891 35999 ft 512 kts 74°
2026-05-04 21:18 39.86285 4.81678 36000 ft 512 kts 74°
2026-05-04 21:19 39.88416 4.90532 36003 ft 512 kts 74°
2026-05-04 21:19 39.90532 4.99384 35994 ft 512 kts 74°
2026-05-04 21:20 39.92642 5.08242 36026 ft 512 kts 74°
2026-05-04 21:20 39.94746 5.17092 36020 ft 511 kts 74°
2026-05-04 21:21 39.96841 5.25948 36019 ft 511 kts 75°
2026-05-04 21:21 39.98925 5.34805 35990 ft 511 kts 74°
2026-05-04 21:22 40.00997 5.43601 36007 ft 510 kts 74°
2026-05-04 21:22 40.03072 5.52442 36012 ft 510 kts 74°
2026-05-04 21:23 40.05132 5.61293 36015 ft 509 kts 75°
2026-05-04 21:23 40.07186 5.70155 36015 ft 509 kts 75°
2026-05-04 21:24 40.09231 5.79003 36008 ft 509 kts 74°
2026-05-04 21:24 40.11276 5.87837 36042 ft 508 kts 74°
2026-05-04 21:25 40.13303 5.96681 36033 ft 508 kts 75°
2026-05-04 21:25 40.15299 6.05467 36023 ft 507 kts 75°
2026-05-04 21:26 40.17309 6.14302 36013 ft 507 kts 74°
2026-05-04 21:26 40.19309 6.23135 36024 ft 506 kts 75°
2026-05-04 21:27 40.21301 6.31954 36029 ft 505 kts 75°
2026-05-04 21:27 40.23286 6.40782 36027 ft 505 kts 75°
2026-05-04 21:28 40.25264 6.49596 36004 ft 504 kts 74°
2026-05-04 21:28 40.27463 6.58312 36024 ft 504 kts 69°
2026-05-04 21:29 40.30077 6.66832 36042 ft 504 kts 67°
2026-05-04 21:29 40.32736 6.75320 36042 ft 503 kts 68°
2026-05-04 21:30 40.35271 6.83860 36036 ft 503 kts 69°
2026-05-04 21:30 40.37735 6.92435 36024 ft 502 kts 69°
2026-05-04 21:31 40.41427 7.05217 36036 ft 501 kts 69°
2026-05-04 21:32 40.43914 7.13778 36030 ft 501 kts 69°
2026-05-04 21:32 40.46382 7.22332 36036 ft 501 kts 69°
2026-05-04 21:33 40.48850 7.30908 36036 ft 501 kts 69°
2026-05-04 21:33 40.51308 7.39470 36030 ft 501 kts 69°
2026-05-04 21:34 40.53757 7.48050 36032 ft 501 kts 69°
2026-05-04 21:34 40.56196 7.56623 36029 ft 501 kts 69°
2026-05-04 21:35 40.58630 7.65205 36025 ft 500 kts 69°
2026-05-04 21:35 40.61040 7.73723 36032 ft 500 kts 69°
2026-05-04 21:36 40.63454 7.82296 36035 ft 499 kts 69°
2026-05-04 21:36 40.65860 7.90872 36060 ft 499 kts 70°
2026-05-04 21:37 40.68267 7.99449 36049 ft 499 kts 69°
2026-05-04 21:37 40.70668 8.08029 36061 ft 498 kts 69°
2026-05-04 21:38 40.73050 8.16606 36065 ft 498 kts 70°
2026-05-04 21:38 40.75424 8.25183 36064 ft 498 kts 70°
2026-05-04 21:39 40.77799 8.33767 36061 ft 497 kts 70°
2026-05-04 21:39 40.80164 8.42351 36042 ft 497 kts 69°
2026-05-04 21:40 40.82519 8.50919 36060 ft 496 kts 70°
2026-05-04 21:40 40.84861 8.59484 36055 ft 496 kts 70°
2026-05-04 21:41 40.87190 8.68058 36054 ft 495 kts 70°
2026-05-04 21:41 40.89514 8.76627 36044 ft 495 kts 69°
2026-05-04 21:42 40.91818 8.85126 36055 ft 495 kts 70°
2026-05-04 21:42 40.94127 8.93693 36056 ft 494 kts 70°
2026-05-04 21:43 40.96428 9.02258 36059 ft 494 kts 70°
2026-05-04 21:43 40.98721 9.10823 36042 ft 494 kts 70°
2026-05-04 21:44 41.01009 9.19394 36063 ft 494 kts 70°
2026-05-04 21:44 41.03293 9.27968 36062 ft 494 kts 70°
2026-05-04 21:45 41.05571 9.36557 36063 ft 494 kts 70°
2026-05-04 21:45 41.07837 9.45136 36083 ft 494 kts 70°
2026-05-04 21:46 41.10094 9.53734 36071 ft 493 kts 70°
2026-05-04 21:46 41.12329 9.62269 36076 ft 493 kts 70°
2026-05-04 21:47 41.14580 9.70851 36070 ft 492 kts 70°
2026-05-04 21:47 41.16816 9.79429 36070 ft 492 kts 70°
2026-05-04 21:48 41.19040 9.88020 36058 ft 492 kts 70°
2026-05-04 21:48 41.21260 9.96611 36063 ft 492 kts 70°
2026-05-04 21:49 41.23482 10.05200 36070 ft 492 kts 70°
2026-05-04 21:49 41.25696 10.13795 36074 ft 491 kts 70°
2026-05-04 21:49 41.26802 10.18103 35937 ft 497 kts 70°
2026-05-04 21:50 41.27920 10.22472 35674 ft 499 kts 70°
2026-05-04 21:50 41.29029 10.26830 35231 ft 499 kts 70°
2026-05-04 21:50 41.30145 10.31236 34321 ft 503 kts 71°
2026-05-04 21:50 41.31260 10.35629 33726 ft 499 kts 71°
2026-05-04 21:51 41.32352 10.39935 33088 ft 496 kts 71°
2026-05-04 21:51 41.33463 10.44331 32474 ft 492 kts 71°
2026-05-04 21:51 41.34546 10.48628 31859 ft 489 kts 71°
2026-05-04 21:51 41.35614 10.52849 31255 ft 485 kts 71°
2026-05-04 21:52 41.36689 10.57096 30661 ft 482 kts 71°
2026-05-04 21:52 41.37751 10.61314 30062 ft 479 kts 71°
2026-05-04 21:52 41.38801 10.65505 29436 ft 475 kts 71°
2026-05-04 21:52 41.39840 10.69651 28874 ft 470 kts 71°
2026-05-04 21:53 41.40869 10.73763 28315 ft 465 kts 71°
2026-05-04 21:53 41.41884 10.77828 27777 ft 460 kts 71°
2026-05-04 21:53 41.42888 10.81862 27239 ft 456 kts 71°
2026-05-04 21:53 41.43881 10.85849 26732 ft 451 kts 72°
2026-05-04 21:54 41.44864 10.89798 26225 ft 447 kts 72°
2026-05-04 21:54 41.45836 10.93713 25715 ft 443 kts 72°
2026-05-04 21:54 41.46801 10.97598 25209 ft 440 kts 72°
2026-05-04 21:54 41.47757 11.01461 24692 ft 437 kts 72°
2026-05-04 21:55 41.48700 11.05284 24203 ft 433 kts 72°
2026-05-04 21:55 41.49636 11.09078 23827 ft 427 kts 73°
2026-05-04 21:55 41.50559 11.12826 23306 ft 424 kts 73°
2026-05-04 21:55 41.51464 11.16498 22795 ft 421 kts 73°
2026-05-04 21:56 41.52375 11.20193 22312 ft 417 kts 73°
2026-05-04 21:56 41.53275 11.23850 21836 ft 413 kts 73°
2026-05-04 21:56 41.54165 11.27485 21369 ft 410 kts 73°
2026-05-04 21:56 41.55042 11.31092 20904 ft 407 kts 73°
2026-05-04 21:57 41.55913 11.34679 20416 ft 404 kts 73°
2026-05-04 21:57 41.56777 11.38235 19953 ft 401 kts 73°
2026-05-04 21:57 41.57635 11.41774 19512 ft 398 kts 73°
2026-05-04 21:57 41.58517 11.45234 19327 ft 388 kts 71°
2026-05-04 21:58 41.59438 11.48571 19112 ft 379 kts 70°
2026-05-04 21:58 41.60380 11.51837 18762 ft 375 kts 70°
2026-05-04 21:58 41.61326 11.55071 18389 ft 372 kts 70°
2026-05-04 21:58 41.62262 11.58286 17962 ft 370 kts 69°
2026-05-04 21:59 41.63183 11.61481 17551 ft 367 kts 70°
2026-05-04 21:59 41.64084 11.64658 17142 ft 365 kts 70°
2026-05-04 21:59 41.64959 11.67783 16735 ft 362 kts 70°
2026-05-04 21:59 41.65833 11.70926 16345 ft 360 kts 70°
2026-05-04 22:00 41.66702 11.74053 15948 ft 358 kts 70°
2026-05-04 22:00 41.67565 11.77159 15571 ft 356 kts 70°
2026-05-04 22:00 41.68425 11.80253 15193 ft 354 kts 70°
2026-05-04 22:00 41.69278 11.83326 14822 ft 352 kts 70°
2026-05-04 22:01 41.70122 11.86354 14670 ft 342 kts 70°
2026-05-04 22:01 41.70948 11.89305 14445 ft 336 kts 70°
2026-05-04 22:01 41.71760 11.92223 14140 ft 334 kts 70°
2026-05-04 22:01 41.72564 11.95134 13799 ft 332 kts 70°
2026-05-04 22:02 41.73093 11.97054 13562 ft 331 kts 70°
2026-05-04 22:02 41.74188 11.99691 13424 ft 321 kts 46°
2026-05-04 22:02 41.75960 12.01349 13299 ft 307 kts 17°
2026-05-04 22:02 41.78012 12.01742 13060 ft 295 kts 350°
2026-05-04 22:03 41.79973 12.01081 12729 ft 290 kts 339°
2026-05-04 22:03 41.81898 12.00262 12407 ft 289 kts 339°
2026-05-04 22:03 41.83800 11.99459 12278 ft 285 kts 339°
2026-05-04 22:03 41.85690 11.98662 12194 ft 285 kts 339°
2026-05-04 22:04 41.87577 11.97866 12109 ft 284 kts 339°
2026-05-04 22:04 41.89466 11.97068 12003 ft 284 kts 339°
2026-05-04 22:04 41.91383 11.96257 11086 ft 296 kts 340°
2026-05-04 22:04 41.93394 11.95402 9990 ft 311 kts 340°
2026-05-04 22:05 41.95505 11.94501 8704 ft 324 kts 340°
2026-05-04 22:05 41.97697 11.93565 7338 ft 337 kts 340°
2026-05-04 22:05 41.99970 11.92597 5873 ft 348 kts 341°
2026-05-04 22:05 42.02316 11.91601 4408 ft 357 kts 341°
2026-05-04 22:06 42.04648 11.90622 3792 ft 339 kts 343°
2026-05-04 22:06 42.06912 11.90314 3280 ft 320 kts
2026-05-04 22:06 42.08890 11.91209 3034 ft 291 kts 35°
2026-05-04 22:06 42.10314 11.92967 3038 ft 272 kts 52°
2026-05-04 22:07 42.11470 11.94813 3029 ft 245 kts 54°
2026-05-04 22:07 42.12517 11.96515 3035 ft 229 kts 55°
2026-05-04 22:07 42.13195 11.98340 3035 ft 212 kts 88°
2026-05-04 22:07 42.13186 12.00277 3054 ft 205 kts 101°
2026-05-04 22:08 42.13009 12.02165 3047 ft 202 kts 103°
2026-05-04 22:08 42.12810 12.04044 3032 ft 203 kts 103°
2026-05-04 22:08 42.12564 12.05916 3034 ft 201 kts 113°
2026-05-04 22:08 42.11973 12.07591 3046 ft 194 kts 122°
2026-05-04 22:09 42.11289 12.09107 3044 ft 186 kts 133°
2026-05-04 22:09 42.10330 12.10226 3056 ft 182 kts 147°
2026-05-04 22:09 42.09287 12.11184 3055 ft 181 kts 149°
2026-05-04 22:09 42.08234 12.12113 3086 ft 180 kts 149°
2026-05-04 22:10 42.07176 12.13033 3067 ft 180 kts 149°
2026-05-04 22:10 42.06100 12.13961 3057 ft 187 kts 149°
2026-05-04 22:10 42.05045 12.14870 3058 ft 178 kts 149°
2026-05-04 22:10 42.04009 12.15765 3061 ft 180 kts 149°
2026-05-04 22:11 42.02955 12.16679 3066 ft 180 kts 149°
2026-05-04 22:11 42.01901 12.17595 3065 ft 181 kts 149°
2026-05-04 22:11 42.00844 12.18513 3066 ft 181 kts 149°
2026-05-04 22:11 41.99783 12.19436 3014 ft 181 kts 149°
2026-05-04 22:12 41.98629 12.20189 2886 ft 190 kts 161°
2026-05-04 22:12 41.97369 12.20771 2662 ft 193 kts 163°
2026-05-04 22:12 41.96090 12.21320 2414 ft 193 kts 163°
2026-05-04 22:12 41.94810 12.21861 2157 ft 189 kts 163°
2026-05-04 22:13 41.93613 12.22365 1907 ft 173 kts 163°
2026-05-04 22:13 41.92504 12.22831 1689 ft 161 kts 163°
2026-05-04 22:13 41.91471 12.23264 1466 ft 149 kts 163°
2026-05-04 22:13 41.90493 12.23675 1280 ft 148 kts 161°
2026-05-04 22:14 41.89541 12.24074 1078 ft 140 kts 161°
2026-05-04 22:14 41.88623 12.24459 887 ft 137 kts 161°
2026-05-04 22:14 41.87708 12.24844 697 ft 139 kts 161°
2026-05-04 22:14 41.86784 12.25231 522 ft 138 kts 160°
2026-05-04 22:15 41.85860 12.25615 326 ft 139 kts 162°
2026-05-04 22:15 41.84945 12.26005 153 ft 137 kts 160°
2026-05-04 22:15 41.84038 12.26381 23 ft 133 kts 160°
2026-05-04 22:15 41.83292 12.26697 20 ft 90 kts 162°
2026-05-04 22:16 41.82768 12.26915 27 ft 68 kts 162°
2026-05-04 22:16 41.82377 12.27079 14 ft 52 kts 162°
2026-05-04 22:16 41.82101 12.27135 12 ft 37 kts 183°
2026-05-04 22:16 41.81851 12.27074 17 ft 35 kts 194°
2026-05-04 22:17 41.81621 12.27072 20 ft 33 kts 165°
2026-05-04 22:17 41.81407 12.27162 21 ft 32 kts 162°
2026-05-04 22:17 41.81186 12.27253 16 ft 34 kts 163°
2026-05-04 22:17 41.80962 12.27346 14 ft 25 kts 165°
2026-05-04 22:18 41.80804 12.27329 14 ft 24 kts 191°
2026-05-04 22:18 41.80659 12.27232 15 ft 25 kts 240°
2026-05-04 22:18 41.80595 12.27008 14 ft 27 kts 250°
2026-05-04 22:18 41.80530 12.26769 14 ft 28 kts 250°
2026-05-04 22:19 41.80459 12.26517 17 ft 26 kts 249°
2026-05-04 22:19 41.80368 12.26373 14 ft 22 kts 187°
2026-05-04 22:19 41.80223 12.26402 16 ft 21 kts 189°
2026-05-04 22:19 41.80085 12.26326 17 ft 22 kts 206°
2026-05-04 22:20 41.79942 12.26239 19 ft 23 kts 205°
2026-05-04 22:20 41.79834 12.26162 19 ft 16 kts 225°
2026-05-04 22:20 41.79842 12.26032 19 ft 14 kts 298°
2026-05-04 22:20 41.79829 12.25923 17 ft 12 kts 252°
2026-05-04 22:21 41.79805 12.25835 16 ft 10 kts 205°
2026-05-04 22:21 41.79762 12.25819 16 ft 4 kts 163°
2026-05-04 22:21 41.79746 12.25843 16 ft 3 kts 122°
2026-05-04 22:21 41.79739 12.25859 16 ft 0 kts 116°